User: anonymous   Login
Location: Unspecified
(0.0000°N, 0.0000°E)
Time: 07:44:34
(UTC+00:00)
Language:

TBA - TO BE ASSIGNED - Orbit

View from above orbital plane
View from above orbital plane
View from above satellite
View from above satellite

Ground track
Ground track

The orbit is defined by the following mean orbital elements,

1 68988U          26145.61993509 +.00000000 +00000-0 +10735-3 0 00001
2 68988  97.7367  43.4546 0005508 215.3918 144.6935 14.90565450    04
Epoch (UTC): 25 May 2026 14:52:42
Eccentricity: 0.0005508
inclination: 97.7367°
perigee height: 592 km
apogee height: 600 km
right ascension of ascending node: 43.4546°
argument of perigee: 215.3918°
revolutions per day: 14.90565450
mean anomaly at epoch: 144.6935°

The dashed part of the orbit path shows where the satellite is in the earth's shadow,  

DLR